Time,TemperatureF,DewpointF,PressureIn,WindDirection,WindDirectionDegrees,WindSpeedMPH,WindSpeedGustMPH,Humidity,HourlyPrecipIn,Conditions,Clouds,dailyrainin,SolarRadiationWatts/m^2,SoftwareType,DateUTC
2013-04-02 00:00:00,57.0,55.2,29.93,WNW,293,0.0,0.0,94,0.00,,,0.08,0.00,VWS V14.01,2013-04-02 04:00:00,
2013-04-02 00:05:00,56.7,55.0,29.93,WNW,293,0.0,0.0,94,0.00,,,0.00,0.00,VWS V14.01,2013-04-02 04:05:00,
2013-04-02 00:10:00,56.5,55.1,29.93,WNW,294,0.0,0.0,95,0.00,,,0.00,0.00,VWS V14.01,2013-04-02 04:10:00,
2013-04-02 00:15:00,56.5,55.0,29.93,WNW,293,0.0,0.0,95,0.00,,,0.00,0.00,VWS V14.01,2013-04-02 04:15:00,
2013-04-02 00:20:00,56.2,54.8,29.94,WNW,293,0.0,0.0,95,0.00,,,0.00,0.00,VWS V14.01,2013-04-02 04:20:00,
2013-04-02 00:25:00,56.0,54.6,29.94,WNW,294,0.0,0.0,95,0.00,,,0.00,0.00,VWS V14.01,2013-04-02 04:25:00,
2013-04-02 00:30:00,56.0,54.5,29.94,WSW,245,0.0,0.0,95,0.00,,,0.00,0.00,VWS V14.01,2013-04-02 04:30:00,
2013-04-02 00:35:00,56.0,54.6,29.94,West,279,0.0,0.0,95,0.00,,,0.00,0.00,VWS V14.01,2013-04-02 04:35:00,
2013-04-02 00:40:00,56.0,54.6,29.94,West,279,0.0,0.0,95,0.00,,,0.00,0.00,VWS V14.01,2013-04-02 04:40:00,
2013-04-02 00:45:00,55.8,54.4,29.95,West,279,0.0,0.0,95,0.00,,,0.00,0.00,VWS V14.01,2013-04-02 04:45:00,
2013-04-02 00:50:00,55.8,54.3,29.95,West,279,0.0,0.0,95,0.00,,,0.00,0.00,VWS V14.01,2013-04-02 04:50:00,
2013-04-02 00:55:00,55.7,54.0,29.95,West,279,0.0,0.0,94,0.00,,,0.00,0.00,VWS V14.01,2013-04-02 04:55:00,
2013-04-02 01:00:00,55.5,53.8,29.95,West,279,0.0,0.0,94,0.00,,,0.00,0.00,VWS V14.01,2013-04-02 05:00:00,
2013-04-02 01:05:00,55.2,53.6,29.95,West,279,0.0,0.0,94,0.00,,,0.00,0.00,VWS V14.01,2013-04-02 05:05:00,
2013-04-02 01:10:00,55.0,53.4,29.95,West,279,0.0,0.0,94,0.00,,,0.00,0.00,VWS V14.01,2013-04-02 05:10:00,
2013-04-02 01:15:00,54.8,53.2,29.95,West,279,0.0,0.0,94,0.00,,,0.00,0.00,VWS V14.01,2013-04-02 05:15:00,
2013-04-02 01:20:00,54.3,52.7,29.95,West,279,0.0,0.0,94,0.00,,,0.00,0.00,VWS V14.01,2013-04-02 05:20:00,
2013-04-02 01:25:00,54.0,52.4,29.95,West,279,0.0,0.0,94,0.00,,,0.00,0.00,VWS V14.01,2013-04-02 05:25:00,
2013-04-02 01:30:00,53.8,52.1,29.95,West,279,0.0,0.0,94,0.00,,,0.00,0.00,VWS V14.01,2013-04-02 05:30:00,
2013-04-02 01:35:00,53.5,51.8,29.96,West,279,0.0,0.0,94,0.00,,,0.00,0.00,VWS V14.01,2013-04-02 05:35:00,
2013-04-02 01:40:00,53.2,51.5,29.96,West,279,0.0,0.0,94,0.00,,,0.00,0.00,VWS V14.01,2013-04-02 05:40:00,
2013-04-02 01:45:00,52.8,51.2,29.96,West,279,0.0,0.0,94,0.00,,,0.00,0.00,VWS V14.01,2013-04-02 05:45:00,
2013-04-02 01:50:00,52.7,51.0,29.96,West,279,0.0,0.0,94,0.00,,,0.00,0.00,VWS V14.01,2013-04-02 05:50:00,
2013-04-02 01:55:00,52.5,50.9,29.96,West,279,0.0,0.0,94,0.00,,,0.00,0.00,VWS V14.01,2013-04-02 05:55:00,
2013-04-02 02:00:00,52.3,50.7,29.96,West,279,0.0,0.0,94,0.00,,,0.00,0.00,VWS V14.01,2013-04-02 06:00:00,
2013-04-02 02:05:00,52.2,50.6,29.96,West,279,0.0,0.0,94,0.00,,,0.00,0.00,VWS V14.01,2013-04-02 06:05:00,
2013-04-02 02:10:00,52.2,50.9,29.96,West,279,0.0,0.0,95,0.00,,,0.00,0.00,VWS V14.01,2013-04-02 06:10:00,
2013-04-02 02:15:00,52.5,51.1,29.97,West,279,0.0,0.0,95,0.00,,,0.00,0.00,VWS V14.01,2013-04-02 06:15:00,
2013-04-02 02:20:00,52.3,51.0,29.97,West,279,0.0,0.0,95,0.00,,,0.00,0.00,VWS V14.01,2013-04-02 06:20:00,
2013-04-02 02:25:00,52.5,51.1,29.97,West,279,0.0,0.0,95,0.00,,,0.00,0.00,VWS V14.01,2013-04-02 06:25:00,
2013-04-02 02:30:00,52.5,51.1,29.97,West,279,0.0,0.0,95,0.00,,,0.00,0.00,VWS V14.01,2013-04-02 06:30:00,
2013-04-02 02:35:00,52.3,51.0,29.97,West,279,0.0,0.0,95,0.00,,,0.00,0.00,VWS V14.01,2013-04-02 06:35:00,
2013-04-02 02:40:00,52.2,50.9,29.97,West,279,0.0,0.0,95,0.00,,,0.00,0.00,VWS V14.01,2013-04-02 06:40:00,
2013-04-02 02:45:00,52.0,50.7,29.97,West,279,0.0,0.0,95,0.00,,,0.00,0.00,VWS V14.01,2013-04-02 06:45:00,
2013-04-02 02:50:00,52.0,50.7,29.97,West,279,0.0,0.0,95,0.00,,,0.00,0.00,VWS V14.01,2013-04-02 06:50:00,
2013-04-02 02:55:00,51.8,50.5,29.97,West,279,0.0,0.0,95,0.00,,,0.00,0.00,VWS V14.01,2013-04-02 06:55:00,
2013-04-02 03:00:00,51.7,50.3,29.97,West,279,0.0,0.0,95,0.00,,,0.00,0.00,VWS V14.01,2013-04-02 07:00:00,
2013-04-02 03:05:00,51.5,50.2,29.97,West,279,0.0,0.0,95,0.00,,,0.00,0.00,VWS V14.01,2013-04-02 07:05:00,
2013-04-02 03:10:00,51.3,50.0,29.97,West,279,0.0,0.0,95,0.00,,,0.00,0.00,VWS V14.01,2013-04-02 07:10:00,
2013-04-02 03:15:00,51.0,49.7,29.97,West,279,0.0,0.0,95,0.00,,,0.00,0.00,VWS V14.01,2013-04-02 07:15:00,
2013-04-02 03:20:00,50.8,49.5,29.97,West,279,0.0,0.0,95,0.00,,,0.00,0.00,VWS V14.01,2013-04-02 07:20:00,
2013-04-02 03:25:00,50.3,49.0,29.97,West,279,0.0,0.0,95,0.00,,,0.00,0.00,VWS V14.01,2013-04-02 07:25:00,
2013-04-02 03:30:00,50.3,49.0,29.98,West,279,0.0,0.0,95,0.00,,,0.00,0.00,VWS V14.01,2013-04-02 07:30:00,
2013-04-02 03:35:00,50.2,48.8,29.98,West,279,0.0,0.0,95,0.00,,,0.00,0.00,VWS V14.01,2013-04-02 07:35:00,
2013-04-02 03:40:00,50.0,48.7,29.97,West,279,0.0,0.0,95,0.00,,,0.00,0.00,VWS V14.01,2013-04-02 07:40:00,
2013-04-02 03:45:00,49.8,48.5,29.98,West,279,0.0,0.0,95,0.00,,,0.00,0.00,VWS V14.01,2013-04-02 07:45:00,
2013-04-02 03:50:00,49.8,48.4,29.98,West,279,0.0,0.0,95,0.00,,,0.00,0.00,VWS V14.01,2013-04-02 07:50:00,
2013-04-02 03:55:00,49.8,48.8,29.98,West,279,0.0,0.0,96,0.00,,,0.00,0.00,VWS V14.01,2013-04-02 07:55:00,
2013-04-02 04:00:00,49.8,48.7,29.98,West,279,0.0,0.0,96,0.00,,,0.00,0.00,VWS V14.01,2013-04-02 08:00:00,
2013-04-02 04:05:00,50.0,48.9,29.98,West,279,0.0,0.0,96,0.00,,,0.00,0.00,VWS V14.01,2013-04-02 08:05:00,
2013-04-02 04:10:00,49.8,48.7,29.98,West,279,0.0,0.0,96,0.00,,,0.00,0.00,VWS V14.01,2013-04-02 08:10:00,
2013-04-02 04:15:00,49.5,48.1,29.98,West,279,0.0,0.0,95,0.00,,,0.00,0.00,VWS V14.01,2013-04-02 08:15:00,
2013-04-02 04:20:00,49.5,48.4,29.98,West,279,0.0,0.0,96,0.00,,,0.00,0.00,VWS V14.01,2013-04-02 08:20:00,
2013-04-02 04:25:00,49.3,48.3,29.99,West,279,0.0,0.0,96,0.00,,,0.00,0.00,VWS V14.01,2013-04-02 08:25:00,
2013-04-02 04:30:00,49.2,48.2,29.99,West,279,0.0,0.0,96,0.00,,,0.00,0.00,VWS V14.01,2013-04-02 08:30:00,
2013-04-02 04:35:00,49.2,48.2,29.99,West,279,0.0,0.0,96,0.00,,,0.00,0.00,VWS V14.01,2013-04-02 08:35:00,
2013-04-02 04:40:00,49.2,48.2,29.99,West,279,0.0,0.0,96,0.00,,,0.00,0.00,VWS V14.01,2013-04-02 08:40:00,
2013-04-02 04:45:00,49.3,48.3,29.99,West,279,0.0,0.0,96,0.00,,,0.00,0.00,VWS V14.01,2013-04-02 08:45:00,
2013-04-02 04:50:00,49.3,48.3,29.99,West,279,0.0,0.0,96,0.00,,,0.00,0.00,VWS V14.01,2013-04-02 08:50:00,
2013-04-02 04:55:00,49.2,48.2,30.00,West,279,0.0,0.0,96,0.00,,,0.00,0.00,VWS V14.01,2013-04-02 08:55:00,
2013-04-02 05:00:00,49.3,48.3,29.99,West,279,0.0,0.0,96,0.00,,,0.00,0.00,VWS V14.01,2013-04-02 09:00:00,
2013-04-02 05:05:00,49.5,48.4,30.00,West,279,0.0,0.0,96,0.00,,,0.00,0.00,VWS V14.01,2013-04-02 09:05:00,
2013-04-02 05:10:00,49.2,47.9,30.00,West,279,0.0,0.0,95,0.00,,,0.00,0.00,VWS V14.01,2013-04-02 09:10:00,
2013-04-02 05:15:00,49.0,47.7,30.00,West,279,0.0,0.0,95,0.00,,,0.00,0.00,VWS V14.01,2013-04-02 09:15:00,
2013-04-02 05:20:00,48.7,47.3,30.00,West,279,0.0,0.0,95,0.00,,,0.00,0.00,VWS V14.01,2013-04-02 09:20:00,
2013-04-02 05:25:00,48.5,47.1,30.00,West,279,0.0,0.0,95,0.00,,,0.00,0.00,VWS V14.01,2013-04-02 09:25:00,
2013-04-02 05:30:00,48.5,47.1,30.01,West,279,0.0,0.0,95,0.00,,,0.00,0.00,VWS V14.01,2013-04-02 09:30:00,
2013-04-02 05:35:00,48.5,47.1,30.01,West,279,0.0,0.0,95,0.00,,,0.00,0.00,VWS V14.01,2013-04-02 09:35:00,
2013-04-02 05:40:00,48.3,47.0,30.01,West,279,0.0,0.0,95,0.00,,,0.00,0.00,VWS V14.01,2013-04-02 09:40:00,
2013-04-02 05:45:00,48.2,46.9,30.01,West,279,0.0,0.0,95,0.00,,,0.00,0.00,VWS V14.01,2013-04-02 09:45:00,
2013-04-02 05:50:00,48.0,46.7,30.02,West,279,0.0,0.0,95,0.00,,,0.00,0.00,VWS V14.01,2013-04-02 09:50:00,
2013-04-02 05:55:00,47.8,46.5,30.02,West,279,0.0,0.0,95,0.00,,,0.00,0.00,VWS V14.01,2013-04-02 09:55:00,
2013-04-02 06:00:00,47.8,46.4,30.02,West,279,0.0,0.0,95,0.00,,,0.00,0.00,VWS V14.01,2013-04-02 10:00:00,
2013-04-02 06:05:00,47.8,46.4,30.02,West,279,0.0,0.0,95,0.00,,,0.00,0.00,VWS V14.01,2013-04-02 10:05:00,
2013-04-02 06:10:00,47.3,46.0,30.02,West,279,0.0,0.0,95,0.00,,,0.00,0.00,VWS V14.01,2013-04-02 10:10:00,
2013-04-02 06:15:00,47.2,45.9,30.02,West,279,0.0,0.0,95,0.00,,,0.00,0.00,VWS V14.01,2013-04-02 10:15:00,
2013-04-02 06:20:00,47.3,46.0,30.03,West,279,0.0,0.0,95,0.00,,,0.00,0.00,VWS V14.01,2013-04-02 10:20:00,
2013-04-02 06:25:00,47.2,45.8,30.03,West,279,0.0,0.0,95,0.00,,,0.00,0.00,VWS V14.01,2013-04-02 10:25:00,
2013-04-02 06:30:00,47.0,45.7,30.04,West,279,0.0,0.0,95,0.00,,,0.00,0.00,VWS V14.01,2013-04-02 10:30:00,
2013-04-02 06:35:00,47.3,46.3,30.04,West,279,0.0,0.0,96,0.00,,,0.00,0.00,VWS V14.01,2013-04-02 10:35:00,
2013-04-02 06:40:00,47.3,46.0,30.04,West,279,0.0,0.0,95,0.00,,,0.00,0.00,VWS V14.01,2013-04-02 10:40:00,
2013-04-02 06:45:00,47.3,46.3,30.04,West,279,0.0,0.0,96,0.00,,,0.00,0.00,VWS V14.01,2013-04-02 10:45:00,
2013-04-02 06:50:00,47.3,46.3,30.04,West,279,0.0,0.0,96,0.00,,,0.00,0.00,VWS V14.01,2013-04-02 10:50:00,
2013-04-02 06:55:00,47.0,45.7,30.05,West,279,0.0,0.0,95,0.00,,,0.00,0.00,VWS V14.01,2013-04-02 10:55:00,
2013-04-02 07:00:00,47.0,46.0,30.05,West,279,0.0,0.0,96,0.00,,,0.00,0.00,VWS V14.01,2013-04-02 11:00:00,
2013-04-02 07:05:00,46.8,45.8,30.05,West,279,0.0,0.0,96,0.00,,,0.00,0.00,VWS V14.01,2013-04-02 11:05:00,
2013-04-02 07:10:00,46.8,45.8,30.05,West,279,0.0,0.0,96,0.00,,,0.00,0.00,VWS V14.01,2013-04-02 11:10:00,
2013-04-02 07:15:00,46.5,45.4,30.06,West,279,0.0,0.0,96,0.00,,,0.00,5.00,VWS V14.01,2013-04-02 11:15:00,
2013-04-02 07:20:00,46.7,45.6,30.06,West,279,0.0,0.0,96,0.00,,,0.00,7.00,VWS V14.01,2013-04-02 11:20:00,
2013-04-02 07:25:00,46.7,45.6,30.06,West,279,0.0,0.0,96,0.00,,,0.00,9.00,VWS V14.01,2013-04-02 11:25:00,
2013-04-02 07:30:00,46.8,45.7,30.06,West,279,0.0,0.0,96,0.00,,,0.00,11.00,VWS V14.01,2013-04-02 11:30:00,
2013-04-02 07:35:00,46.8,45.8,30.07,West,279,0.0,0.0,96,0.00,,,0.00,12.00,VWS V14.01,2013-04-02 11:35:00,
2013-04-02 07:40:00,46.8,45.7,30.07,West,279,0.0,0.0,96,0.00,,,0.00,14.00,VWS V14.01,2013-04-02 11:40:00,
2013-04-02 07:45:00,46.7,45.6,30.07,West,279,0.0,0.0,96,0.00,,,0.00,16.00,VWS V14.01,2013-04-02 11:45:00,
2013-04-02 07:50:00,46.8,45.8,30.08,West,279,0.0,0.0,96,0.00,,,0.00,18.00,VWS V14.01,2013-04-02 11:50:00,
2013-04-02 07:55:00,47.0,45.9,30.08,West,279,0.0,0.0,96,0.00,,,0.00,19.00,VWS V14.01,2013-04-02 11:55:00,
2013-04-02 08:00:00,47.2,46.4,30.08,NNE,22,0.0,0.0,97,0.00,,,0.00,21.00,VWS V14.01,2013-04-02 12:00:00,
2013-04-02 08:05:00,47.8,46.7,30.09,NNE,23,0.0,0.0,96,0.00,,,0.00,23.00,VWS V14.01,2013-04-02 12:05:00,
2013-04-02 08:10:00,48.3,47.3,30.09,North,3,0.0,0.0,96,0.00,,,0.00,25.00,VWS V14.01,2013-04-02 12:10:00,
2013-04-02 08:15:00,49.0,47.9,30.09,North,11,0.0,0.0,96,0.00,,,0.00,26.00,VWS V14.01,2013-04-02 12:15:00,
2013-04-02 08:20:00,50.0,49.0,30.10,NNE,21,4.4,4.4,96,0.00,,,0.00,26.00,VWS V14.01,2013-04-02 12:20:00,
2013-04-02 08:25:00,51.3,49.4,30.10,NE,43,0.0,1.1,93,0.00,,,0.00,28.00,VWS V14.01,2013-04-02 12:25:00,
2013-04-02 08:30:00,52.0,49.5,30.10,NE,40,0.0,0.0,91,0.00,,,0.00,30.00,VWS V14.01,2013-04-02 12:30:00,
2013-04-02 08:35:00,53.2,49.4,30.10,North,11,0.0,0.0,87,0.00,,,0.00,32.00,VWS V14.01,2013-04-02 12:35:00,
2013-04-02 08:40:00,53.8,49.1,30.10,North,358,2.2,3.3,84,0.00,,,0.00,32.00,VWS V14.01,2013-04-02 12:40:00,
2013-04-02 08:45:00,54.3,49.0,30.10,ENE,69,0.0,1.1,82,0.00,,,0.00,32.00,VWS V14.01,2013-04-02 12:45:00,
2013-04-02 08:50:00,54.8,48.5,30.11,NE,54,0.0,3.3,79,0.00,,,0.00,84.00,VWS V14.01,2013-04-02 12:50:00,
2013-04-02 08:55:00,55.2,48.4,30.10,NNE,19,3.3,4.4,78,0.00,,,0.00,33.00,VWS V14.01,2013-04-02 12:55:00,
2013-04-02 09:00:00,55.5,48.1,30.10,NE,54,1.1,1.1,76,0.00,,,0.00,35.00,VWS V14.01,2013-04-02 13:00:00,
2013-04-02 09:05:00,56.0,48.5,30.10,East,83,1.1,2.2,76,0.00,,,0.00,37.00,VWS V14.01,2013-04-02 13:05:00,
2013-04-02 09:10:00,56.0,48.2,30.11,NNE,29,0.0,0.0,75,0.00,,,0.00,37.00,VWS V14.01,2013-04-02 13:10:00,
2013-04-02 09:15:00,56.2,48.3,30.12,NE,52,0.0,3.3,75,0.00,,,0.00,39.00,VWS V14.01,2013-04-02 13:15:00,
2013-04-02 09:20:00,56.3,48.5,30.12,NE,39,0.0,1.1,75,0.00,,,0.00,37.00,VWS V14.01,2013-04-02 13:20:00,
2013-04-02 09:25:00,56.5,48.3,30.12,NNW,339,4.4,4.4,74,0.00,,,0.00,40.00,VWS V14.01,2013-04-02 13:25:00,
2013-04-02 09:30:00,56.5,47.9,30.12,NE,56,2.2,3.3,73,0.00,,,0.00,40.00,VWS V14.01,2013-04-02 13:30:00,
2013-04-02 09:35:00,56.5,48.0,30.12,North,353,6.6,7.7,73,0.00,,,0.00,40.00,VWS V14.01,2013-04-02 13:35:00,
2013-04-02 09:40:00,56.5,47.6,30.12,NNE,31,2.2,5.5,72,0.00,,,0.00,42.00,VWS V14.01,2013-04-02 13:40:00,
2013-04-02 09:45:00,57.0,48.1,30.12,NE,37,0.0,3.3,72,0.00,,,0.00,44.00,VWS V14.01,2013-04-02 13:45:00,
2013-04-02 09:50:00,57.2,48.3,30.12,NNE,14,0.0,0.0,72,0.00,,,0.00,46.00,VWS V14.01,2013-04-02 13:50:00,
2013-04-02 09:55:00,57.5,48.5,30.12,NNE,32,0.0,5.5,72,0.00,,,0.00,46.00,VWS V14.01,2013-04-02 13:55:00,
2013-04-02 10:00:00,57.7,48.3,30.12,East,93,0.0,0.0,71,0.00,,,0.00,47.00,VWS V14.01,2013-04-02 14:00:00,
2013-04-02 10:05:00,57.7,48.0,30.12,North,358,3.3,6.6,70,0.00,,,0.00,49.00,VWS V14.01,2013-04-02 14:05:00,
2013-04-02 10:10:00,58.0,49.1,30.13,NNE,29,0.0,0.0,72,0.00,,,0.00,49.00,VWS V14.01,2013-04-02 14:10:00,
2013-04-02 10:15:00,58.3,47.8,30.13,North,358,1.1,3.3,68,0.00,,,0.00,53.00,VWS V14.01,2013-04-02 14:15:00,
2013-04-02 10:20:00,58.2,47.7,30.13,NNE,13,0.0,1.1,68,0.00,,,0.00,54.00,VWS V14.01,2013-04-02 14:20:00,
2013-04-02 10:25:00,58.0,47.6,30.13,NNE,17,2.2,4.4,68,0.00,,,0.00,63.00,VWS V14.01,2013-04-02 14:25:00,
2013-04-02 10:30:00,58.2,48.0,30.13,North,358,3.3,4.4,69,0.00,,,0.00,56.00,VWS V14.01,2013-04-02 14:30:00,
2013-04-02 10:35:00,58.7,48.5,30.13,SSW,195,0.0,1.1,69,0.00,,,0.00,54.00,VWS V14.01,2013-04-02 14:35:00,
2013-04-02 10:40:00,59.0,48.4,30.13,North,358,5.5,5.5,68,0.00,,,0.00,60.00,VWS V14.01,2013-04-02 14:40:00,
2013-04-02 10:45:00,59.2,48.6,30.13,NNE,21,2.2,2.2,68,0.00,,,0.00,58.00,VWS V14.01,2013-04-02 14:45:00,
2013-04-02 10:50:00,59.7,48.3,30.13,NNE,13,0.0,1.1,66,0.00,,,0.00,60.00,VWS V14.01,2013-04-02 14:50:00,
2013-04-02 10:55:00,59.7,48.7,30.13,ENE,62,0.0,4.4,67,0.00,,,0.00,62.00,VWS V14.01,2013-04-02 14:55:00,
2013-04-02 11:00:00,60.5,49.5,30.13,NE,40,0.0,0.0,67,0.00,,,0.00,134.00,VWS V14.01,2013-04-02 15:00:00,
2013-04-02 11:05:00,60.5,49.0,30.13,SW,230,0.0,2.2,66,0.00,,,0.00,67.00,VWS V14.01,2013-04-02 15:05:00,
2013-04-02 11:10:00,61.0,48.8,30.13,SE,142,2.2,2.2,64,0.00,,,0.00,195.00,VWS V14.01,2013-04-02 15:10:00,
2013-04-02 11:15:00,60.5,48.3,30.12,NNE,15,3.3,3.3,64,0.00,,,0.00,547.00,VWS V14.01,2013-04-02 15:15:00,
2013-04-02 11:19:00,60.5,48.7,30.12,NNE,15,4.4,7.7,65,0.00,,,0.00,729.00,VWS V14.01,2013-04-02 15:19:00,
2013-04-02 11:25:00,61.0,48.8,30.12,NNW,336,5.5,7.7,64,0.00,,,0.00,740.00,VWS V14.01,2013-04-02 15:25:00,
2013-04-02 11:30:00,61.5,48.8,30.12,North,11,1.1,3.3,63,0.00,,,0.00,754.00,VWS V14.01,2013-04-02 15:30:00,
2013-04-02 11:35:00,61.7,49.4,30.12,East,100,0.0,1.1,64,0.00,,,0.00,761.00,VWS V14.01,2013-04-02 15:35:00,
2013-04-02 11:40:00,62.7,49.9,30.12,North,6,2.2,4.4,63,0.00,,,0.00,775.00,VWS V14.01,2013-04-02 15:40:00,
2013-04-02 11:45:00,62.2,49.1,30.12,North,358,3.3,3.3,62,0.00,,,0.00,784.00,VWS V14.01,2013-04-02 15:45:00,
2013-04-02 11:50:00,62.8,49.6,30.12,North,11,0.0,3.3,62,0.00,,,0.00,798.00,VWS V14.01,2013-04-02 15:50:00,
2013-04-02 11:55:00,64.0,49.8,30.12,NE,45,2.2,3.3,60,0.00,,,0.00,807.00,VWS V14.01,2013-04-02 15:55:00,
2013-04-02 12:00:00,64.9,51.2,30.12,SE,144,0.0,0.0,61,0.00,,,0.00,821.00,VWS V14.01,2013-04-02 16:00:00,
2013-04-02 12:05:00,64.6,50.8,30.12,SSE,156,0.0,0.0,61,0.00,,,0.00,835.00,VWS V14.01,2013-04-02 16:05:00,
2013-04-02 12:10:00,65.3,49.3,30.12,ENE,73,0.0,0.0,56,0.00,,,0.00,846.00,VWS V14.01,2013-04-02 16:10:00,
2013-04-02 12:15:00,64.8,50.1,30.12,SW,227,1.1,2.2,59,0.00,,,0.00,849.00,VWS V14.01,2013-04-02 16:15:00,
2013-04-02 12:20:00,64.3,50.2,30.11,NNW,348,3.3,4.4,60,0.00,,,0.00,856.00,VWS V14.01,2013-04-02 16:20:00,
2013-04-02 12:25:00,65.8,51.5,30.11,SE,131,0.0,0.0,60,0.00,,,0.00,860.00,VWS V14.01,2013-04-02 16:25:00,
2013-04-02 12:30:00,65.8,50.7,30.11,SE,143,1.1,1.1,58,0.00,,,0.00,858.00,VWS V14.01,2013-04-02 16:30:00,
2013-04-02 12:35:00,66.3,50.7,30.12,SE,133,0.0,0.0,57,0.00,,,0.00,874.00,VWS V14.01,2013-04-02 16:35:00,
2013-04-02 12:40:00,66.8,50.7,30.11,SE,127,0.0,0.0,56,0.00,,,0.00,875.00,VWS V14.01,2013-04-02 16:40:00,
2013-04-02 12:45:00,67.2,47.9,30.11,SE,125,1.1,4.4,50,0.00,,,0.00,881.00,VWS V14.01,2013-04-02 16:45:00,
2013-04-02 12:50:00,66.6,47.3,30.11,SW,229,3.3,3.3,50,0.00,,,0.00,893.00,VWS V14.01,2013-04-02 16:50:00,
2013-04-02 12:55:00,66.2,48.1,30.10,WSW,252,0.0,1.1,52,0.00,,,0.00,891.00,VWS V14.01,2013-04-02 16:55:00,
2013-04-02 13:00:00,66.8,48.1,30.10,SW,230,1.1,3.3,51,0.00,,,0.00,893.00,VWS V14.01,2013-04-02 17:00:00,
2013-04-02 13:05:00,66.7,49.5,30.10,SSE,148,0.0,0.0,54,0.00,,,0.00,891.00,VWS V14.01,2013-04-02 17:05:00,
2013-04-02 13:10:00,67.6,49.3,30.10,ESE,117,0.0,1.1,52,0.00,,,0.00,893.00,VWS V14.01,2013-04-02 17:10:00,
2013-04-02 13:15:00,67.7,49.4,30.10,SW,216,1.1,2.2,52,0.00,,,0.00,898.00,VWS V14.01,2013-04-02 17:15:00,
2013-04-02 13:20:00,68.1,49.3,30.10,SW,214,3.3,4.4,51,0.00,,,0.00,902.00,VWS V14.01,2013-04-02 17:20:00,
2013-04-02 13:25:00,68.7,48.7,30.10,South,190,3.3,4.4,49,0.00,,,0.00,896.00,VWS V14.01,2013-04-02 17:25:00,
2013-04-02 13:30:00,68.7,47.6,30.09,South,189,2.2,3.3,47,0.00,,,0.00,896.00,VWS V14.01,2013-04-02 17:30:00,
2013-04-02 13:35:00,69.2,48.7,30.09,SE,135,1.1,1.1,48,0.00,,,0.00,905.00,VWS V14.01,2013-04-02 17:35:00,
2013-04-02 13:40:00,69.6,47.9,30.09,SSW,196,7.7,7.7,46,0.00,,,0.00,889.00,VWS V14.01,2013-04-02 17:40:00,
2013-04-02 13:45:00,69.8,49.3,30.08,SSE,158,2.2,4.4,48,0.00,,,0.00,898.00,VWS V14.01,2013-04-02 17:45:00,
2013-04-02 13:50:00,69.2,47.6,30.08,South,191,0.0,0.0,46,0.00,,,0.00,900.00,VWS V14.01,2013-04-02 17:50:00,
2013-04-02 13:55:00,69.4,48.4,30.08,ESE,108,0.0,2.2,47,0.00,,,0.00,898.00,VWS V14.01,2013-04-02 17:55:00,
2013-04-02 14:00:00,69.8,49.2,30.08,SSW,195,2.2,3.3,48,0.00,,,0.00,900.00,VWS V14.01,2013-04-02 18:00:00,
2013-04-02 14:05:00,69.6,48.5,30.08,SSE,162,2.2,4.4,47,0.00,,,0.00,896.00,VWS V14.01,2013-04-02 18:05:00,
2013-04-02 14:10:00,69.3,48.8,30.08,SE,133,7.7,7.7,48,0.00,,,0.00,884.00,VWS V14.01,2013-04-02 18:10:00,
2013-04-02 14:15:00,68.9,47.3,30.08,SSE,156,5.5,5.5,46,0.00,,,0.00,886.00,VWS V14.01,2013-04-02 18:15:00,
2013-04-02 14:20:00,69.2,47.5,30.08,South,191,2.2,4.4,46,0.00,,,0.00,886.00,VWS V14.01,2013-04-02 18:20:00,
2013-04-02 14:25:00,69.8,48.6,30.08,East,85,1.1,4.4,47,0.00,,,0.00,898.00,VWS V14.01,2013-04-02 18:25:00,
2013-04-02 14:30:00,69.7,48.5,30.07,SE,128,0.0,2.2,47,0.00,,,0.00,828.00,VWS V14.01,2013-04-02 18:30:00,
2013-04-02 14:35:00,68.8,47.2,30.07,SSE,161,3.3,3.3,46,0.00,,,0.00,668.00,VWS V14.01,2013-04-02 18:35:00,
2013-04-02 14:40:00,67.3,46.5,30.06,SSE,154,3.3,4.4,47,0.00,,,0.00,480.00,VWS V14.01,2013-04-02 18:40:00,
2013-04-02 14:45:00,67.1,46.7,30.06,SSE,149,2.2,3.3,48,0.00,,,0.00,844.00,VWS V14.01,2013-04-02 18:45:00,
2013-04-02 14:51:00,67.7,48.4,30.06,ESE,118,0.0,5.5,50,0.00,,,0.00,802.00,VWS V14.01,2013-04-02 18:51:00,
2013-04-02 14:56:00,67.8,46.9,30.06,SSE,152,2.2,3.3,47,0.00,,,0.00,816.00,VWS V14.01,2013-04-02 18:56:00,
2013-04-02 15:01:00,68.1,46.5,30.06,SSE,149,2.2,4.4,46,0.00,,,0.00,779.00,VWS V14.01,2013-04-02 19:01:00,
2013-04-02 15:06:00,67.6,46.1,30.06,SSE,148,3.3,6.6,46,0.00,,,0.00,837.00,VWS V14.01,2013-04-02 19:06:00,
2013-04-02 15:11:00,68.2,47.2,30.06,SSW,212,3.3,3.3,47,0.00,,,0.00,833.00,VWS V14.01,2013-04-02 19:11:00,
2013-04-02 15:16:00,67.8,46.8,30.05,SSE,154,1.1,1.1,47,0.00,,,0.00,814.00,VWS V14.01,2013-04-02 19:16:00,
2013-04-02 15:21:00,67.4,46.0,30.06,SW,214,3.3,5.5,46,0.00,,,0.00,657.00,VWS V14.01,2013-04-02 19:21:00,
2013-04-02 15:26:00,67.1,45.6,30.06,SE,127,5.5,6.6,46,0.00,,,0.00,635.00,VWS V14.01,2013-04-02 19:26:00,
2013-04-02 15:31:00,67.3,47.0,30.06,SSE,160,0.0,2.2,48,0.00,,,0.00,775.00,VWS V14.01,2013-04-02 19:31:00,
2013-04-02 15:36:00,67.2,47.5,30.05,SE,142,3.3,5.5,49,0.00,,,0.00,759.00,VWS V14.01,2013-04-02 19:36:00,
2013-04-02 15:41:00,67.9,47.5,30.05,SE,146,5.5,5.5,48,0.00,,,0.00,752.00,VWS V14.01,2013-04-02 19:41:00,
2013-04-02 15:46:00,67.2,47.5,30.05,SSE,168,2.2,6.6,49,0.00,,,0.00,740.00,VWS V14.01,2013-04-02 19:46:00,
2013-04-02 15:51:00,66.4,46.7,30.05,ESE,105,5.5,7.7,49,0.00,,,0.00,721.00,VWS V14.01,2013-04-02 19:51:00,
2013-04-02 15:56:00,65.4,45.8,30.05,ESE,110,1.1,2.2,49,0.00,,,0.00,585.00,VWS V14.01,2013-04-02 19:56:00,
2013-04-02 16:01:00,65.6,46.4,30.05,SE,133,5.5,5.5,50,0.00,,,0.00,399.00,VWS V14.01,2013-04-02 20:01:00,
2013-04-02 16:06:00,65.2,46.2,30.05,SSE,155,1.1,5.5,50,0.00,,,0.00,538.00,VWS V14.01,2013-04-02 20:06:00,
2013-04-02 16:11:00,65.8,46.7,30.05,ESE,120,5.5,7.7,50,0.00,,,0.00,677.00,VWS V14.01,2013-04-02 20:11:00,
2013-04-02 16:16:00,66.1,47.4,30.06,ENE,67,1.1,1.1,51,0.00,,,0.00,657.00,VWS V14.01,2013-04-02 20:16:00,
2013-04-02 16:21:00,65.7,47.0,30.06,SW,217,3.3,3.3,51,0.00,,,0.00,643.00,VWS V14.01,2013-04-02 20:21:00,
2013-04-02 16:27:00,65.9,48.3,30.06,SSE,165,3.3,3.3,53,0.00,,,0.00,624.00,VWS V14.01,2013-04-02 20:27:00,
2013-04-02 16:32:00,66.1,47.4,30.06,East,82,1.1,2.2,51,0.00,,,0.00,606.00,VWS V14.01,2013-04-02 20:32:00,
2013-04-02 16:37:00,65.8,47.1,30.06,NE,52,0.0,4.4,51,0.00,,,0.00,594.00,VWS V14.01,2013-04-02 20:37:00,
2013-04-02 16:42:00,65.6,47.5,30.06,SSE,168,2.2,4.4,52,0.00,,,0.00,578.00,VWS V14.01,2013-04-02 20:42:00,
2013-04-02 16:47:00,65.4,47.4,30.06,SSE,148,1.1,6.6,52,0.00,,,0.00,561.00,VWS V14.01,2013-04-02 20:47:00,
2013-04-02 16:52:00,65.4,48.4,30.06,NE,55,1.1,4.4,54,0.00,,,0.00,547.00,VWS V14.01,2013-04-02 20:52:00,
2013-04-02 16:57:00,65.2,48.2,30.06,East,96,0.0,4.4,54,0.00,,,0.00,531.00,VWS V14.01,2013-04-02 20:57:00,
2013-04-02 17:02:00,65.7,48.6,30.06,NNW,348,0.0,2.2,54,0.00,,,0.00,513.00,VWS V14.01,2013-04-02 21:02:00,
2013-04-02 17:07:00,65.1,47.5,30.06,North,358,2.2,3.3,53,0.00,,,0.00,496.00,VWS V14.01,2013-04-02 21:07:00,
2013-04-02 17:12:00,64.9,48.4,30.06,SSE,168,1.1,3.3,55,0.00,,,0.00,475.00,VWS V14.01,2013-04-02 21:12:00,
2013-04-02 17:17:00,64.6,47.5,30.06,SE,130,3.3,6.6,54,0.00,,,0.00,455.00,VWS V14.01,2013-04-02 21:17:00,
2013-04-02 17:22:00,64.6,48.0,30.06,East,81,0.0,0.0,55,0.00,,,0.00,410.00,VWS V14.01,2013-04-02 21:22:00,
2013-04-02 17:27:00,64.7,48.6,30.07,ESE,123,0.0,0.0,56,0.00,,,0.00,171.00,VWS V14.01,2013-04-02 21:27:00,
2013-04-02 17:32:00,64.0,48.4,30.06,ENE,62,1.1,2.2,57,0.00,,,0.00,216.00,VWS V14.01,2013-04-02 21:32:00,
2013-04-02 17:37:00,64.1,48.0,30.06,SSE,151,4.4,4.4,56,0.00,,,0.00,105.00,VWS V14.01,2013-04-02 21:37:00,
2013-04-02 17:42:00,63.5,47.0,30.06,NE,40,1.1,3.3,55,0.00,,,0.00,114.00,VWS V14.01,2013-04-02 21:42:00,
2013-04-02 17:47:00,63.5,47.1,30.06,SSE,150,2.2,2.2,55,0.00,,,0.00,86.00,VWS V14.01,2013-04-02 21:47:00,
2013-04-02 17:52:00,63.2,47.2,30.06,SSE,154,2.2,2.2,56,0.00,,,0.00,74.00,VWS V14.01,2013-04-02 21:52:00,
2013-04-02 17:57:00,62.5,47.6,30.06,SE,133,4.4,4.4,58,0.00,,,0.00,69.00,VWS V14.01,2013-04-02 21:57:00,
2013-04-02 18:03:00,62.3,47.4,30.06,ESE,112,0.0,0.0,58,0.00,,,0.00,65.00,VWS V14.01,2013-04-02 22:03:00,
2013-04-02 18:07:00,62.2,47.2,30.07,NE,45,0.0,0.0,58,0.00,,,0.00,62.00,VWS V14.01,2013-04-02 22:07:00,
2013-04-02 18:13:00,62.2,47.7,30.07,SE,142,0.0,4.4,59,0.00,,,0.00,60.00,VWS V14.01,2013-04-02 22:13:00,
2013-04-02 18:18:00,62.0,48.0,30.07,East,100,0.0,1.1,60,0.00,,,0.00,54.00,VWS V14.01,2013-04-02 22:18:00,
2013-04-02 18:23:00,61.7,48.1,30.07,ESE,103,1.1,1.1,61,0.00,,,0.00,51.00,VWS V14.01,2013-04-02 22:23:00,
2013-04-02 18:28:00,61.7,48.1,30.07,SSE,157,4.4,4.4,61,0.00,,,0.00,47.00,VWS V14.01,2013-04-02 22:28:00,
2013-04-02 18:33:00,61.5,48.0,30.07,SSE,150,0.0,1.1,61,0.00,,,0.00,44.00,VWS V14.01,2013-04-02 22:33:00,
2013-04-02 18:38:00,61.2,48.1,30.07,SE,135,1.1,1.1,62,0.00,,,0.00,42.00,VWS V14.01,2013-04-02 22:38:00,
2013-04-02 18:43:00,61.0,48.4,30.07,SE,141,0.0,0.0,63,0.00,,,0.00,40.00,VWS V14.01,2013-04-02 22:43:00,
2013-04-02 18:48:00,60.8,47.8,30.07,South,170,0.0,2.2,62,0.00,,,0.00,44.00,VWS V14.01,2013-04-02 22:48:00,
2013-04-02 18:53:00,60.5,48.3,30.07,SE,143,0.0,0.0,64,0.00,,,0.00,35.00,VWS V14.01,2013-04-02 22:53:00,
2013-04-02 18:58:00,60.2,48.0,30.07,ESE,119,0.0,0.0,64,0.00,,,0.00,32.00,VWS V14.01,2013-04-02 22:58:00,
2013-04-02 19:03:00,60.0,48.2,30.07,SE,139,1.1,8.8,65,0.00,,,0.00,28.00,VWS V14.01,2013-04-02 23:03:00,
2013-04-02 19:08:00,59.8,48.4,30.07,SSE,148,0.0,2.2,66,0.00,,,0.00,23.00,VWS V14.01,2013-04-02 23:08:00,
2013-04-02 19:13:00,59.5,48.9,30.07,SE,128,0.0,0.0,68,0.00,,,0.00,19.00,VWS V14.01,2013-04-02 23:13:00,
2013-04-02 19:18:00,59.0,48.9,30.07,SE,128,0.0,0.0,69,0.00,,,0.00,16.00,VWS V14.01,2013-04-02 23:18:00,
2013-04-02 19:23:00,58.8,48.6,30.07,SE,131,0.0,0.0,69,0.00,,,0.00,14.00,VWS V14.01,2013-04-02 23:23:00,
2013-04-02 19:28:00,58.5,48.8,30.07,SE,135,0.0,0.0,70,0.00,,,0.00,11.00,VWS V14.01,2013-04-02 23:28:00,
2013-04-02 19:33:00,58.2,48.8,30.07,SE,143,0.0,0.0,71,0.00,,,0.00,7.00,VWS V14.01,2013-04-02 23:33:00,
2013-04-02 19:38:00,57.8,48.9,30.07,SE,143,0.0,0.0,72,0.00,,,0.00,0.00,VWS V14.01,2013-04-02 23:38:00,
2013-04-02 19:43:00,57.5,49.3,30.07,SE,143,0.0,0.0,74,0.00,,,0.00,0.00,VWS V14.01,2013-04-02 23:43:00,
2013-04-02 19:48:00,57.3,49.1,30.07,SE,143,0.0,0.0,74,0.00,,,0.00,0.00,VWS V14.01,2013-04-02 23:48:00,
2013-04-02 19:53:00,57.3,49.1,30.07,SE,133,0.0,0.0,74,0.00,,,0.00,0.00,VWS V14.01,2013-04-02 23:53:00,
2013-04-02 19:58:00,57.0,49.1,30.07,SE,133,0.0,0.0,75,0.00,,,0.00,0.00,VWS V14.01,2013-04-02 23:58:00,
2013-04-02 20:03:00,56.5,49.1,30.07,SE,133,0.0,0.0,76,0.00,,,0.00,0.00,VWS V14.01,2013-04-03 00:03:00,
2013-04-02 20:08:00,56.5,49.3,30.08,SSE,166,0.0,0.0,77,0.00,,,0.00,0.00,VWS V14.01,2013-04-03 00:08:00,
2013-04-02 20:13:00,56.3,49.2,30.08,South,183,0.0,1.1,77,0.00,,,0.00,0.00,VWS V14.01,2013-04-03 00:13:00,
2013-04-02 20:18:00,56.2,49.5,30.08,South,183,0.0,0.0,78,0.00,,,0.00,0.00,VWS V14.01,2013-04-03 00:18:00,
2013-04-02 20:23:00,56.0,49.5,30.08,South,183,0.0,0.0,79,0.00,,,0.00,0.00,VWS V14.01,2013-04-03 00:23:00,
2013-04-02 20:28:00,55.7,49.6,30.08,South,183,0.0,0.0,80,0.00,,,0.00,0.00,VWS V14.01,2013-04-03 00:28:00,
2013-04-02 20:33:00,55.5,49.4,30.08,South,183,0.0,0.0,80,0.00,,,0.00,0.00,VWS V14.01,2013-04-03 00:33:00,
2013-04-02 20:38:00,55.2,49.5,30.08,South,183,0.0,0.0,81,0.00,,,0.00,0.00,VWS V14.01,2013-04-03 00:38:00,
2013-04-02 20:43:00,55.0,49.7,30.08,South,183,0.0,0.0,82,0.00,,,0.00,0.00,VWS V14.01,2013-04-03 00:43:00,
2013-04-02 20:48:00,54.8,49.4,30.08,South,183,0.0,0.0,82,0.00,,,0.00,0.00,VWS V14.01,2013-04-03 00:48:00,
2013-04-02 20:53:00,54.5,49.5,30.08,South,179,0.0,0.0,83,0.00,,,0.00,0.00,VWS V14.01,2013-04-03 00:53:00,
2013-04-02 20:58:00,54.3,49.6,30.08,South,179,0.0,0.0,84,0.00,,,0.00,0.00,VWS V14.01,2013-04-03 00:58:00,
2013-04-02 21:03:00,54.0,49.7,30.08,South,179,0.0,0.0,85,0.00,,,0.00,0.00,VWS V14.01,2013-04-03 01:03:00,
2013-04-02 21:08:00,53.8,49.7,30.08,South,179,0.0,0.0,86,0.00,,,0.00,0.00,VWS V14.01,2013-04-03 01:08:00,
2013-04-02 21:13:00,53.3,49.6,30.08,South,179,0.0,0.0,87,0.00,,,0.00,0.00,VWS V14.01,2013-04-03 01:13:00,
2013-04-02 21:18:00,53.3,49.6,30.09,South,179,0.0,0.0,87,0.00,,,0.00,0.00,VWS V14.01,2013-04-03 01:18:00,
2013-04-02 21:23:00,53.2,49.7,30.09,South,179,0.0,0.0,88,0.00,,,0.00,0.00,VWS V14.01,2013-04-03 01:23:00,
2013-04-02 21:28:00,53.2,49.7,30.09,South,179,0.0,0.0,88,0.00,,,0.00,0.00,VWS V14.01,2013-04-03 01:28:00,
2013-04-02 21:33:00,53.3,49.9,30.09,South,179,0.0,0.0,88,0.00,,,0.00,0.00,VWS V14.01,2013-04-03 01:33:00,
2013-04-02 21:38:00,53.3,49.9,30.09,South,179,0.0,0.0,88,0.00,,,0.00,0.00,VWS V14.01,2013-04-03 01:38:00,
2013-04-02 21:43:00,53.0,49.8,30.09,South,179,0.0,0.0,89,0.00,,,0.00,0.00,VWS V14.01,2013-04-03 01:43:00,
2013-04-02 21:48:00,52.8,49.7,30.09,South,179,0.0,0.0,89,0.00,,,0.00,0.00,VWS V14.01,2013-04-03 01:48:00,
2013-04-02 21:54:00,52.5,49.3,30.09,South,179,0.0,0.0,89,0.00,,,0.00,0.00,VWS V14.01,2013-04-03 01:54:00,
2013-04-02 21:59:00,52.2,49.3,30.09,South,179,0.0,0.0,90,0.00,,,0.00,0.00,VWS V14.01,2013-04-03 01:59:00,
2013-04-02 22:04:00,52.2,49.6,30.09,South,179,0.0,0.0,91,0.00,,,0.00,0.00,VWS V14.01,2013-04-03 02:04:00,
2013-04-02 22:09:00,51.8,49.3,30.09,South,179,0.0,0.0,91,0.00,,,0.00,0.00,VWS V14.01,2013-04-03 02:09:00,
2013-04-02 22:14:00,51.7,49.1,30.09,South,179,0.0,0.0,91,0.00,,,0.00,0.00,VWS V14.01,2013-04-03 02:14:00,
2013-04-02 22:19:00,51.5,49.2,30.09,South,179,0.0,0.0,92,0.00,,,0.00,0.00,VWS V14.01,2013-04-03 02:19:00,
2013-04-02 22:24:00,51.5,49.3,30.09,South,179,0.0,0.0,92,0.00,,,0.00,0.00,VWS V14.01,2013-04-03 02:24:00,
2013-04-02 22:29:00,51.7,49.4,30.09,South,179,0.0,0.0,92,0.00,,,0.00,0.00,VWS V14.01,2013-04-03 02:29:00,
2013-04-02 22:34:00,51.5,49.2,30.09,South,179,0.0,0.0,92,0.00,,,0.00,0.00,VWS V14.01,2013-04-03 02:34:00,
2013-04-02 22:39:00,51.3,49.1,30.09,South,179,0.0,0.0,92,0.00,,,0.00,0.00,VWS V14.01,2013-04-03 02:39:00,
2013-04-02 22:44:00,51.0,48.8,30.09,South,179,0.0,0.0,92,0.00,,,0.00,0.00,VWS V14.01,2013-04-03 02:44:00,
2013-04-02 22:49:00,50.8,48.9,30.09,South,179,0.0,0.0,93,0.00,,,0.00,0.00,VWS V14.01,2013-04-03 02:49:00,
2013-04-02 22:54:00,51.0,49.0,30.09,South,179,0.0,0.0,93,0.00,,,0.00,0.00,VWS V14.01,2013-04-03 02:54:00,
2013-04-02 22:59:00,51.0,49.0,30.09,South,179,0.0,0.0,93,0.00,,,0.00,0.00,VWS V14.01,2013-04-03 02:59:00,
2013-04-02 23:04:00,51.0,49.0,30.09,South,179,0.0,0.0,93,0.00,,,0.00,0.00,VWS V14.01,2013-04-03 03:04:00,
2013-04-02 23:09:00,50.8,49.2,30.09,South,179,0.0,0.0,94,0.00,,,0.00,0.00,VWS V14.01,2013-04-03 03:09:00,
2013-04-02 23:14:00,50.8,48.9,30.09,South,179,0.0,0.0,93,0.00,,,0.00,0.00,VWS V14.01,2013-04-03 03:14:00,
2013-04-02 23:19:00,50.5,48.5,30.09,South,179,0.0,0.0,93,0.00,,,0.00,0.00,VWS V14.01,2013-04-03 03:19:00,
2013-04-02 23:24:00,50.2,48.5,30.10,South,179,0.0,0.0,94,0.00,,,0.00,0.00,VWS V14.01,2013-04-03 03:24:00,
2013-04-02 23:29:00,50.2,48.5,30.10,South,179,0.0,0.0,94,0.00,,,0.00,0.00,VWS V14.01,2013-04-03 03:29:00,
2013-04-02 23:34:00,50.2,48.6,30.10,South,179,0.0,0.0,94,0.00,,,0.00,0.00,VWS V14.01,2013-04-03 03:34:00,
2013-04-02 23:39:00,50.0,48.4,30.10,South,179,0.0,0.0,94,0.00,,,0.00,0.00,VWS V14.01,2013-04-03 03:39:00,
2013-04-02 23:44:00,50.2,48.9,30.10,South,179,0.0,0.0,95,0.00,,,0.00,0.00,VWS V14.01,2013-04-03 03:44:00,
2013-04-02 23:49:00,50.2,48.8,30.10,South,179,0.0,0.0,95,0.00,,,0.00,0.00,VWS V14.01,2013-04-03 03:49:00,
2013-04-02 23:54:00,50.2,48.8,30.10,South,179,0.0,0.0,95,0.00,,,0.00,0.00,VWS V14.01,2013-04-03 03:54:00,
2013-04-02 23:59:00,49.8,48.1,30.10,South,179,0.0,0.0,94,0.00,,,0.00,0.00,VWS V14.01,2013-04-03 03:59:00,